TimeEST,TemperatureF,Dew PointF,Humidity,Sea Level PressureIn,VisibilityMPH,Wind Direction,Wind SpeedMPH,Gust SpeedMPH,PrecipitationIn,Events,Conditions,WindDirDegrees,DateUTC
12:16 AM,26.1,19.8,77,30.36,10.0,SSW,6.9,-,N/A,,Clear,200,2012-11-14 05:16:00
12:36 AM,25.5,19.4,78,30.36,10.0,SSW,5.8,-,N/A,,Clear,200,2012-11-14 05:36:00
12:55 AM,25.3,19.4,78,30.36,10.0,SSW,5.8,-,N/A,,Clear,200,2012-11-14 05:55:00
1:16 AM,25.3,19.4,78,30.35,10.0,SSW,3.5,-,N/A,,Clear,210,2012-11-14 06:16:00
1:36 AM,25.2,19.8,80,30.36,10.0,South,5.8,-,N/A,,Scattered Clouds,190,2012-11-14 06:36:00
1:56 AM,25.5,19.9,79,30.36,10.0,South,5.8,-,N/A,,Scattered Clouds,190,2012-11-14 06:56:00
2:16 AM,25.5,19.9,79,30.36,10.0,South,6.9,-,N/A,,Scattered Clouds,190,2012-11-14 07:16:00
2:35 AM,25.7,19.9,79,30.36,10.0,South,5.8,-,N/A,,Scattered Clouds,190,2012-11-14 07:35:00
2:56 AM,25.7,19.9,79,30.37,10.0,SSW,4.6,-,N/A,,Clear,200,2012-11-14 07:56:00
3:16 AM,25.7,20.1,79,30.37,10.0,SSW,4.6,-,N/A,,Scattered Clouds,200,2012-11-14 08:16:00
3:35 AM,25.5,19.9,79,30.36,10.0,South,6.9,-,N/A,,Mostly Cloudy,190,2012-11-14 08:35:00
3:56 AM,25.7,20.1,79,30.36,10.0,South,4.6,-,N/A,,Scattered Clouds,180,2012-11-14 08:56:00
4:16 AM,25.5,19.9,79,30.37,10.0,SSW,3.5,-,N/A,,Mostly Cloudy,200,2012-11-14 09:16:00
4:35 AM,24.8,19.8,81,30.36,10.0,SSW,3.5,-,N/A,,Mostly Cloudy,200,2012-11-14 09:35:00
4:56 AM,25.5,20.1,80,30.36,10.0,SSW,4.6,-,N/A,,Clear,200,2012-11-14 09:56:00
5:16 AM,25.7,20.1,79,30.36,10.0,SSW,3.5,-,N/A,,Scattered Clouds,200,2012-11-14 10:16:00
5:35 AM,26.4,20.5,78,30.36,10.0,South,5.8,-,N/A,,Mostly Cloudy,190,2012-11-14 10:35:00
5:56 AM,26.6,20.8,79,30.36,10.0,South,6.9,-,N/A,,Overcast,190,2012-11-14 10:56:00
6:50 AM,26.6,21.2,80,30.36,10.0,SSW,8.1,-,N/A,,Overcast,200,2012-11-14 11:50:00
7:55 AM,26.6,21.2,80,30.36,10.0,South,8.1,-,N/A,,Overcast,190,2012-11-14 12:55:00
8:50 AM,28.4,17.6,64,30.36,10.0,South,9.2,-,N/A,,Overcast,190,2012-11-14 13:50:00
9:50 AM,30.2,21.2,69,30.35,10.0,South,10.4,-,N/A,,Overcast,190,2012-11-14 14:50:00
10:50 AM,32.0,23.0,69,30.35,10.0,South,11.5,-,N/A,,Mostly Cloudy,190,2012-11-14 15:50:00
11:50 AM,33.8,23.0,65,30.33,10.0,South,12.7,-,N/A,,Mostly Cloudy,180,2012-11-14 16:50:00
12:50 PM,39.2,24.8,56,30.29,10.0,South,17.3,24.2,N/A,,Scattered Clouds,190,2012-11-14 17:50:00
1:50 PM,41.0,24.8,53,30.28,10.0,South,19.6,24.2,N/A,,Mostly Cloudy,190,2012-11-14 18:50:00
2:50 PM,41.0,23.0,49,30.26,10.0,SSW,16.1,-,N/A,,Overcast,200,2012-11-14 19:50:00
3:50 PM,41.0,24.8,53,30.26,10.0,SSW,11.5,-,N/A,,Scattered Clouds,200,2012-11-14 20:50:00
4:50 PM,39.2,24.8,56,30.26,10.0,South,13.8,-,N/A,,Scattered Clouds,190,2012-11-14 21:50:00
5:50 PM,39.2,24.8,56,30.25,10.0,South,11.5,-,N/A,,Overcast,190,2012-11-14 22:50:00
7:50 PM,35.6,24.8,65,30.26,10.0,SSW,10.4,-,N/A,,Mostly Cloudy,200,2012-11-15 00:50:00
8:50 PM,35.6,26.6,70,30.25,10.0,South,11.5,-,N/A,,Clear,190,2012-11-15 01:50:00
9:50 PM,35.6,28.4,75,30.24,-9999.0,North,-9999.0,-,N/A,,Clear,0,2012-11-15 02:50:00
10:15 PM,35.2,28.4,76,30.24,10.0,South,11.5,-,N/A,,Scattered Clouds,190,2012-11-15 03:15:00
10:36 PM,35.2,28.4,76,30.24,10.0,South,11.5,-,N/A,,Clear,190,2012-11-15 03:36:00
10:56 PM,35.2,28.8,77,30.24,10.0,South,11.5,-,N/A,,Scattered Clouds,190,2012-11-15 03:56:00
11:15 PM,35.1,28.9,78,30.24,10.0,South,12.7,-,N/A,,Scattered Clouds,190,2012-11-15 04:15:00
11:36 PM,34.9,28.9,79,30.24,10.0,South,12.7,-,N/A,,Scattered Clouds,190,2012-11-15 04:36:00
11:55 PM,34.7,28.9,79,30.24,10.0,SSW,12.7,-,N/A,,Clear,200,2012-11-15 04:55:00